El Paso, TX

2:40 PM MDT on April 28, 2017 (GMT -0600)
El Paso International

Weather History for KELP - February, 2013

Change the Weather History Date:

Monday, February 11, 2013

  Actual Average Record
Temperature  
Mean Temperature 44 °F 49 °F  
Max Temperature 60 °F 62 °F 84 °F (2017)
Min Temperature 27 °F 36 °F 16 °F (2011)
Degree Days  
Heating Degree Days 21 16  
Month to date heating degree days 153 185  
Since 1 July heating degree days 1642 1870  
Cooling Degree Days 0 0  
Month to date cooling degree days 0 0  
Year to date cooling degree days 0 0  
Moisture  
Dew Point 11 °F    
Average Humidity 27    
Maximum Humidity 40    
Minimum Humidity 13    
Precipitation  
Precipitation T in 0.02 in 0.85 in (1906)
Month to date precipitation T 0.20  
Year to date precipitation 0.30 0.60  
Snow  
Snow 0.00 in - - ()
Month to date snowfall 0.0  
Since 1 July snowfall 3.1  
Snow Depth 0.00 in    
Sea Level Pressure  
Sea Level Pressure 29.87 in    
Wind  
Wind Speed 7 mph (WNW)    
Max Wind Speed 22 mph    
Max Gust Speed 30 mph    
Visibility 10 miles    
Events      
T = Trace of Precipitation, MM = Missing Value Source: NWS Daily Summary

Daily Weather History Graph

Daily Weather History Graph

Search for Another Location

Airport or City:

Trip Planner

Search our weather history database for the weather conditions in past years. The results will help you decide how hot, cold, wet, or windy it might be!

Date:

Astronomy

Feb. 11, 2013 Rise Set
Actual Time 6:50 AM MST 5:49 PM MST
Civil Twilight 6:25 AM MST 6:14 PM MST
Nautical Twilight 5:57 AM MST 6:42 PM MST
Astronomical Twilight 5:28 AM MST 7:11 PM MST
Moon 7:25 AM MST (2/11) 7:37 PM MST (2/11)
Length of Visible Light 11h 48m
Length of Day
10h 58m
Waxing Crescent, 3% of the Moon is Illuminated
Feb 11
Waxing Crescent
Feb 17
First Quarter
Feb 25
Full
Mar 4
Last Quarter
Mar 11
New

Hourly Weather History & Observations

Time (MST) Temp. Windchill Dew Point Humidity Pressure Visibility Wind Dir Wind Speed Gust Speed Precip Events Conditions
12:51 AM 36.0 °F 29.0 °F 10.0 °F 34% 29.91 in 10.0 mi SE 9.2 mph - N/A   Mostly Cloudy
1:51 AM 37.9 °F - 9.0 °F 30% 29.91 in 10.0 mi Calm Calm - N/A   Scattered Clouds
2:51 AM 36.0 °F - 9.0 °F 33% 29.90 in 10.0 mi Calm Calm - N/A   Scattered Clouds
3:51 AM 33.1 °F - 8.1 °F 35% 29.90 in 10.0 mi Calm Calm - N/A   Scattered Clouds
4:51 AM 34.0 °F 29.8 °F 8.1 °F 34% 29.90 in 10.0 mi WSW 4.6 mph - N/A   Scattered Clouds
5:51 AM 33.1 °F - 8.1 °F 35% 29.92 in 10.0 mi Calm Calm - N/A   Scattered Clouds
6:51 AM 28.9 °F 22.8 °F 7.0 °F 40% 29.95 in 10.0 mi NE 5.8 mph - N/A   Partly Cloudy
7:51 AM 32.0 °F 28.7 °F 6.1 °F 34% 29.96 in 10.0 mi NNE 3.5 mph - N/A   Clear
8:51 AM 37.0 °F 34.5 °F 7.0 °F 29% 29.95 in 10.0 mi North 3.5 mph - N/A   Clear
9:51 AM 45.0 °F 43.5 °F 9.0 °F 23% 29.94 in 10.0 mi NNW 3.5 mph - N/A   Clear
10:51 AM 52.0 °F - 9.0 °F 18% 29.92 in 10.0 mi Calm Calm - N/A   Partly Cloudy
11:51 AM 55.9 °F - 6.1 °F 14% 29.87 in 10.0 mi Calm Calm - N/A   Partly Cloudy
12:51 PM 57.9 °F - 7.0 °F 13% 29.85 in 10.0 mi Variable 3.5 mph - N/A   Partly Cloudy
1:51 PM 57.0 °F - 10.0 °F 15% 29.82 in 10.0 mi West 10.4 mph - N/A   Partly Cloudy
2:51 PM 59.0 °F - 12.9 °F 16% 29.79 in 10.0 mi WSW 9.2 mph 18.4 mph N/A   Partly Cloudy
3:51 PM 59.0 °F - 15.1 °F 18% 29.79 in 10.0 mi West 17.3 mph - N/A   Partly Cloudy
4:51 PM 57.9 °F - 16.0 °F 19% 29.79 in 10.0 mi West 11.5 mph - N/A   Partly Cloudy
5:51 PM 55.9 °F - 10.9 °F 17% 29.79 in 10.0 mi West 13.8 mph - N/A   Partly Cloudy
6:51 PM 55.0 °F - 8.1 °F 15% 29.82 in 10.0 mi WNW 12.7 mph - N/A   Partly Cloudy
7:51 PM 51.1 °F - 10.0 °F 19% 29.84 in 10.0 mi NW 8.1 mph - N/A   Scattered Clouds
8:51 PM 48.9 °F - 10.0 °F 21% 29.86 in 10.0 mi NW 11.5 mph - N/A   Partly Cloudy
9:51 PM 46.9 °F - 15.1 °F 28% 29.86 in 10.0 mi NW 12.7 mph - N/A   Partly Cloudy
10:51 PM 45.0 °F 39.7 °F 21.0 °F 39% 29.87 in 10.0 mi NNW 10.4 mph - N/A   Mostly Cloudy
11:51 PM 44.1 °F 36.2 °F 28.0 °F 53% 29.88 in 10.0 mi West 18.4 mph - 0.00 in   Overcast